Location: Unspecified
(31.4582°N, 0.0000°E)
Time: 04:32:37
(UTC+00:00)

NOAA 16 DEB - Visible Passes

Search period start: 04 April 2026 00:00
Search period end: 14 April 2026 00:00
Orbit: 676 x 796 km, 98.9° (Epoch: 28 March)

Date Brightness Start Highest point End Pass type
(mag) Time Alt. Az. Time Alt. Az. Time Alt. Az.
4 Apr ? 04:32:55 10° ESE 04:35:43 16° ENE 04:38:30 10° NNE visible
5 Apr ? 19:11:45 10° NNW 19:15:43 26° WNW 19:19:46 10° SW visible
6 Apr ? 04:40:02 10° ESE 04:43:16 19° ENE 04:46:29 10° NNE visible
7 Apr ? 19:19:33 10° NNW 19:23:16 23° WNW 19:27:03 10° WSW visible
8 Apr ? 04:47:13 10° ESE 04:50:48 22° ENE 04:54:21 10° NNE visible
9 Apr ? 19:27:23 10° NNW 19:30:48 19° WNW 19:34:15 10° WSW visible
10 Apr ? 04:54:27 10° SE 04:58:18 26° ENE 05:02:07 10° NNE visible
11 Apr ? 19:35:17 10° NNW 19:38:17 16° WNW 19:41:21 10° WSW visible
12 Apr ? 05:01:44 10° SE 05:05:48 31° ENE 05:09:50 10° N visible
12 Apr ? 18:48:30 10° N 18:53:12 49° WNW 18:58:03 10° SSW visible
13 Apr ? 19:43:16 10° NW 19:45:46 14° WNW 19:48:17 10° W visible
